Regional Weather Roundup
Issued by NWS Glasgow, MT

Home | Current Version | Previous Version | Text Only | Print | Product List | Glossary On
Versions: 1 2 3 4 5 6 7 8 9 10 11 12 13 14 15 16 17 18 19 20 21 22 23 24 25 26 27 28
000
ASUS45 KGGW 252215
RWRGGW
HOURLY WEATHER ROUNDUP FOR NORTHEAST MONTANA
NATIONAL WEATHER SERVICE GLASGOW MONTANA
400 PM MDT SAT OCT 25 2014

NOTE: "FAIR" INDICATES FEW OR NO CLOUDS BELOW 12,000 FEET WITH NO
SIGNIFICANT WEATHER AND/OR OBSTRUCTIONS TO VISISBILITY.

NORTHEAST MONTANA


CITY           SKY/WX    TMP DP  RH WIND       PRES   REMARKS
GLASGOW        SUNNY     64  32  30 SE20      29.83F
PLENTYWOOD       N/A     61  28  28 SE10        N/A
WOLF POINT     SUNNY     67  34  29 E16G23    29.89F
JORDAN           N/A     68  34  28 SE17      29.81F
WINNETT          N/A     68  33  27 SE6         N/A
SIDNEY         SUNNY     66  32  28 E14       29.95F
GLENDIVE       SUNNY     66  32  28 E14       29.92F
MALTA            N/A     63  37  38 E8          N/A
SCOBEY           N/A     61  31  32 E12G22    29.91

FORT PECK REPORTS


CITY           SKY/WX    TMP DP  RH WIND       PRES   REMARKS
FORT PECK        N/A     65  36  34 E23         N/A
THE PINES        N/A     69  34  27 E8G17       N/A

SOUTHEAST MONTANA


CITY           SKY/WX    TMP DP  RH WIND       PRES   REMARKS
BILLINGS       MOSUNNY   64  37  36 NE8       29.81F
MILES CITY     SUNNY     72  35  25 SE16      29.84F
BAKER          SUNNY     67  34  29 SE21      29.94F
LIVINGSTON     SUNNY     71  29  21 MISG      29.79F

CENTRAL MONTANA


CITY           SKY/WX    TMP DP  RH WIND       PRES   REMARKS
HAVRE          PTSUNNY   67  38  34 E16       29.71F
LEWISTOWN      MOSUNNY   72  40  31 CALM      29.78F
GREAT FALLS    CLOUDY    56  42  59 E3        29.74F
CUT BANK       CLOUDY    53  39  59 SE12      29.73F
HELENA         PTSUNNY   55  42  61 CALM      29.78F
BUTTE          PTSUNNY   66  31  27 S17       29.83F
BOZEMAN        CLOUDY    60  44  55 VRB3      29.82F

WESTERN MONTANA


CITY           SKY/WX    TMP DP  RH WIND       PRES   REMARKS
MISSOULA       CLOUDY    50  44  80 W6        29.76F
KALISPELL      NOT AVBL

NORTH DAKOTA


CITY           SKY/WX    TMP DP  RH WIND       PRES   REMARKS
WILLISTON      SUNNY     64  31  28 SE13      29.97F
DICKINSON      SUNNY     64  31  28 SE16      29.98F
MINOT          SUNNY     61  26  26 SE8       30.03F
BISMARCK       SUNNY     64  29  26 SE8       30.06F

SOUTHERN SASKATCHEWAN


CITY           SKY/WX    TMP DP  RH WIND       PRES   REMARKS
REGINA         PTSUNNY   55  32  41 E6        29.96
ESTEVAN        PTSUNNY   57  28  33 SE7       29.99F
SWIFT CURRENT  MOSUNNY   54  25  32 E16G25    29.84F




USA.gov is the U.S. government's official web portal to all federal, state and local government web resources and services.